Location: Mountain View
(37.3861°N, 122.0839°W)
Time: 16:05:23
(UTC-07:00)

Envisat - Pass Details

Date: 10 May 2026
Orbit: 761 x 763 km, 98.4° (Epoch: 7 June)

Event Time Altitude Azimuth Distance (km) Brightness Sun altitude
Rises 05:06:47 0° 352° (N) 3,230 6.6 -10.8°
Reaches altitude 10° 05:10:03 10° 330° (NNW) 2,299 5.5 -10.3°
Maximum altitude 05:12:48 15° 297° (WNW) 1,971 4.8 -9.8°
Drops below altitude 10° 05:15:34 10° 263° (W) 2,291 4.9 -9.4°
Enters shadow 05:15:45 10° 261° (W) 2,331 4.9 -9.3°
